Group_ship,Cruise,JD_GMT,Date_DDMMYYYY,TIME_HH:MM:SS,Lat_dec_degree,Long_dec_degree,xCO2eq_ppm,xCO2a_ppm,Pres_Equi_hPa,Pres_sealevel_hPa,EqTemp_C,SST(TSG)_C,Sal(TSG)_Permil,Water_flow_l/min,Gasflow_IR_ml/min,Temp_IR_C,Pres_IR_hPa,Ship_heading_true_degree,Ship_speed_knot,Wind_dir_rel_degree,Wind_speed_rel_m/s,fCO2W@SST_uatm,Qcflag_water,fCO2a_uatm,Qcflag_air,dfCO2_uatm,Fluoro_ug/l,Wind_speed_true_m/s,Wind_dir_true_degree,Air_temp_C,Oxygen
AOML_Explorer,Ex0733N,227.973,15082007,23:21:40,32.733,-64.666,417.99,-9.00,1016.80,1014.30,27.68,27.78,36.426,1.562,101.315,30.364,1016.802,314.800,18.700,339.000,7.206,404.85,2,-9.00,9,-9.00,0.03,3.92,176.09,27.1,233.84
AOML_Explorer,Ex0733N,227.975,15082007,23:24:13,32.742,-64.678,418.82,-9.00,1016.73,1014.30,27.71,27.94,36.392,1.565,101.390,30.443,1016.728,314.300,18.700,346.000,7.721,407.62,2,-9.00,9,-9.00,0.03,2.88,174.81,27.1,232.72
AOML_Explorer,Ex0733N,227.977,15082007,23:26:46,32.752,-64.689,419.60,-9.00,1016.76,1014.20,27.58,27.69,36.417,1.549,101.442,30.526,1016.758,314.700,18.700,343.000,7.721,406.66,2,-9.00,9,-9.00,0.03,3.20,178.95,27.08,232.65
AOML_Explorer,Ex0733N,227.979,15082007,23:29:19,32.761,-64.700,420.24,-9.00,1016.77,1014.30,27.54,27.75,36.417,1.536,101.357,30.601,1016.772,315.200,18.700,342.000,7.721,408.84,2,-9.00,9,-9.00,0.03,3.40,180.96,27.05,232.52
AOML_Explorer,Ex0733N,227.980,15082007,23:31:52,32.770,-64.711,419.59,-9.00,1016.88,1014.40,27.49,27.83,36.438,1.560,102.485,30.681,1016.877,314.500,18.800,347.000,7.721,410.52,2,-9.00,9,-9.00,0.03,2.81,173.92,27.05,232.86
AOML_Explorer,Ex0733N,227.982,15082007,23:34:25,32.780,-64.722,419.16,-9.00,1016.92,1014.30,27.57,28.04,36.452,1.568,101.414,30.751,1016.920,315.400,18.700,337.000,6.691,412.26,2,-9.00,9,-9.00,0.03,4.49,172.70,27.08,233.31
AOML_Explorer,Ex0733N,227.984,15082007,23:36:58,32.789,-64.733,419.89,-9.00,1017.05,1014.40,27.62,28.05,36.474,1.553,101.296,30.820,1017.055,315.400,18.700,337.000,7.721,412.17,2,-9.00,9,-9.00,0.03,4.02,185.31,27.06,233.76
AOML_Explorer,Ex0733N,227.986,15082007,23:39:31,32.799,-64.744,421.02,-9.00,1016.90,1014.40,27.73,28.06,36.469,1.563,101.204,30.888,1016.902,315.200,18.500,340.000,10.294,411.63,2,-9.00,9,-9.00,0.03,3.62,225.88,26.83,234.00
AOML_Explorer,Ex0733N,227.988,15082007,23:42:04,32.808,-64.755,422.36,-9.00,1016.81,1014.40,27.74,27.93,36.499,1.561,101.124,30.955,1016.809,314.900,18.500,340.000,10.294,410.46,2,-9.00,9,-9.00,0.03,3.65,226.12,26.48,233.93
AOML_Explorer,Ex0733N,227.989,15082007,23:44:37,32.818,-64.766,423.14,-9.00,1016.81,1014.40,27.74,27.93,36.484,1.584,101.218,31.020,1016.810,315.700,18.400,341.000,10.294,411.19,2,-9.00,9,-9.00,0.03,3.51,227.49,26.38,233.70
AOML_Explorer,Ex0733N,227.991,15082007,23:47:10,32.827,-64.777,423.31,-9.00,1016.88,1014.70,27.67,27.91,36.453,1.569,101.399,31.080,1016.883,314.800,18.400,352.000,11.838,412.32,2,-9.00,9,-9.00,0.03,2.78,276.22,26.26,233.21
AOML_Explorer,Ex0733N,227.993,15082007,23:49:43,32.836,-64.788,423.20,-9.00,1017.11,1014.60,27.61,27.96,36.501,1.563,101.079,31.138,1017.107,315.100,18.400,345.000,10.809,414.24,2,-9.00,9,-9.00,0.03,3.03,242.26,25.94,233.33
AOML_Explorer,Ex0733N,227.995,15082007,23:52:16,32.846,-64.799,422.81,-9.00,1017.23,1014.60,27.67,28.04,36.524,1.547,101.279,31.196,1017.227,315.100,18.300,339.000,10.809,414.12,2,-9.00,9,-9.00,0.03,3.99,233.06,25.9,233.45
AOML_Explorer,Ex0733N,227.996,15082007,23:54:49,32.855,-64.810,423.26,-9.00,1017.30,1014.60,27.72,28.07,36.468,1.571,101.168,31.252,1017.301,314.300,18.400,335.000,9.265,414.19,2,-9.00,9,-9.00,0.03,4.10,208.39,26.09,233.63
AOML_Explorer,Ex0733N,227.998,15082007,23:57:22,32.864,-64.821,423.76,-9.00,1017.26,1014.80,27.76,28.04,36.393,1.564,101.100,31.303,1017.264,315.900,18.500,334.000,9.265,413.50,2,-9.00,9,-9.00,0.03,4.22,209.08,26.21,233.46
AOML_Explorer,Ex0733N,228.000,15082007,23:59:55,32.874,-64.832,424.19,-9.00,1017.28,1014.80,27.74,28.13,36.484,1.581,101.226,31.354,1017.275,315.800,18.500,338.000,8.235,415.67,2,-9.00,9,-9.00,0.03,3.66,193.88,26.17,233.61
AOML_Explorer,Ex0733N,228.015,16082007,0:21:40,32.955,-64.926,423.35,-9.00,1017.47,1015.00,27.63,28.06,36.417,1.612,100.958,31.744,1017.471,316.100,18.700,343.000,6.691,415.72,2,-9.00,9,-9.00,0.03,3.86,167.63,26.58,232.82
AOML_Explorer,Ex0733N,228.017,16082007,0:24:13,32.965,-64.937,423.25,-9.00,1017.54,1014.90,27.65,27.99,36.418,1.595,100.766,31.777,1017.540,315.400,18.600,336.000,6.691,414.21,2,-9.00,9,-9.00,0.03,4.50,174.08,26.53,233.09
AOML_Explorer,Ex0733N,228.019,16082007,0:26:46,32.975,-64.948,423.40,-9.00,1017.60,1015.00,27.70,28.00,36.424,1.564,100.842,31.811,1017.604,315.700,18.600,343.000,7.206,413.79,2,-9.00,9,-9.00,0.03,3.47,174.28,26.41,232.89
AOML_Explorer,Ex0733N,228.020,16082007,0:29:19,32.984,-64.958,423.30,-9.00,1017.50,1014.90,27.71,27.96,36.453,1.570,101.011,31.842,1017.500,316.500,18.500,346.000,6.691,412.79,2,-9.00,9,-9.00,0.03,3.56,165.84,26.43,233.16
AOML_Explorer,Ex0733N,228.022,16082007,0:31:52,32.994,-64.969,423.00,-9.00,1017.48,1015.00,27.78,27.83,36.331,1.571,101.687,31.875,1017.478,316.200,18.500,341.000,6.691,409.05,2,-9.00,9,-9.00,0.03,3.96,170.99,26.43,233.14
AOML_Explorer,Ex0733N,228.024,16082007,0:34:25,33.003,-64.980,422.84,-9.00,1017.46,1015.00,27.66,27.78,36.278,1.583,101.040,31.902,1017.455,315.800,18.500,348.000,8.235,410.07,2,-9.00,9,-9.00,0.04,2.35,185.09,26.49,232.73
AOML_Explorer,Ex0733N,228.026,16082007,0:36:58,33.013,-64.991,420.94,-9.00,1017.50,1015.20,27.58,27.80,36.218,1.591,100.835,31.934,1017.500,315.800,18.500,344.000,9.265,410.16,2,-9.00,9,-9.00,0.03,2.71,211.79,26.28,232.63
AOML_Explorer,Ex0733N,228.027,16082007,0:39:31,33.022,-65.002,419.27,-9.00,1017.55,1015.10,27.53,27.91,36.178,1.594,100.795,31.962,1017.553,316.000,18.400,355.000,9.779,411.05,2,-9.00,9,-9.00,0.03,0.98,240.89,26.29,233.01
AOML_Explorer,Ex0733N,228.029,16082007,0:42:04,33.032,-65.012,418.25,-9.00,1017.52,1015.30,27.57,27.79,36.220,1.558,100.886,31.991,1017.523,316.600,18.300,0.000,8.750,407.38,2,-9.00,9,-9.00,0.03,0.74,145.49,26.33,233.04
AOML_Explorer,Ex0733N,228.031,16082007,0:44:37,33.041,-65.023,417.95,-9.00,1017.56,1015.30,27.61,27.85,36.184,1.587,100.738,32.016,1017.561,316.900,18.400,6.000,8.750,407.55,2,-9.00,9,-9.00,0.03,1.07,92.81,26.26,232.94
AOML_Explorer,Ex0733N,228.033,16082007,0:47:10,33.051,-65.034,418.23,-9.00,1017.66,1015.40,27.53,27.86,36.288,1.585,100.815,32.043,1017.663,316.600,18.400,7.000,9.265,409.32,2,-9.00,9,-9.00,0.03,1.02,65.06,26.29,233.08
AOML_Explorer,Ex0733N,228.035,16082007,0:49:43,33.060,-65.044,418.24,-9.00,1017.66,1015.40,27.58,27.93,36.331,1.553,101.016,32.067,1017.663,316.600,18.400,6.000,9.265,409.60,2,-9.00,9,-9.00,0.03,0.85,67.52,26.43,233.23
AOML_Explorer,Ex0733N,228.036,16082007,0:52:16,33.070,-65.055,418.97,-9.00,1017.77,1015.40,27.61,27.92,36.348,1.581,100.899,32.090,1017.767,316.500,18.400,1.000,8.750,409.76,2,-9.00,9,-9.00,0.03,0.80,138.18,26.34,233.04
AOML_Explorer,Ex0733N,228.038,16082007,0:54:49,33.079,-65.066,420.55,-9.00,1017.71,1015.40,27.63,27.87,36.365,1.550,101.048,32.113,1017.708,316.600,18.500,6.000,7.721,409.94,2,-9.00,9,-9.00,0.03,2.01,116.19,26.31,233.04
AOML_Explorer,Ex0733N,228.040,16082007,0:57:22,33.089,-65.076,421.48,-9.00,1017.73,1015.30,27.64,28.03,36.265,1.568,101.186,32.135,1017.728,316.900,18.500,359.000,7.206,413.42,2,-9.00,9,-9.00,0.03,2.38,143.44,26.26,233.04
AOML_Explorer,Ex0733N,228.042,16082007,0:59:55,33.099,-65.087,421.67,-9.00,1017.73,1015.30,27.61,28.02,36.338,1.545,101.091,32.156,1017.727,316.900,18.600,356.000,6.691,413.86,2,-9.00,9,-9.00,0.03,2.97,148.33,26.28,233.15
AOML_Explorer,Ex0733N,228.058,16082007,1:24:13,33.189,-65.190,416.81,-9.00,1017.91,1015.50,27.42,27.67,36.338,1.535,100.809,32.329,1017.907,317.200,18.500,359.000,7.206,406.86,2,-9.00,9,-9.00,0.03,2.37,142.71,26.78,232.50
AOML_Explorer,Ex0733N,228.060,16082007,1:26:46,33.199,-65.201,416.45,-9.00,1017.92,1015.50,27.41,27.68,36.334,1.546,100.652,32.345,1017.917,316.400,18.500,353.000,8.235,406.79,2,-9.00,9,-9.00,0.03,1.75,173.83,26.76,232.50
AOML_Explorer,Ex0733N,228.062,16082007,1:29:19,33.209,-65.212,416.25,-9.00,1017.99,1015.50,27.42,27.68,36.322,1.537,100.512,32.357,1017.990,316.600,18.500,350.000,7.206,406.58,2,-9.00,9,-9.00,0.03,2.81,164.51,26.57,232.46
AOML_Explorer,Ex0733N,228.064,16082007,1:31:52,33.218,-65.223,415.93,-9.00,1018.06,1015.60,27.43,27.57,36.309,1.530,100.600,32.373,1018.056,316.700,18.600,353.000,6.691,404.21,2,-9.00,9,-9.00,0.03,3.10,153.19,26.54,232.38
AOML_Explorer,Ex0733N,228.066,16082007,1:34:25,33.228,-65.234,415.65,-9.00,1018.09,1015.70,27.39,27.61,36.287,1.558,100.424,32.386,1018.095,316.800,18.600,355.000,7.206,405.28,2,-9.00,9,-9.00,0.03,2.54,152.82,26.56,232.64
AOML_Explorer,Ex0733N,228.067,16082007,1:36:58,33.237,-65.245,414.84,-9.00,1018.13,1015.70,27.35,27.68,36.276,1.576,100.559,32.400,1018.126,316.300,18.600,358.000,7.206,406.45,2,-9.00,9,-9.00,0.03,2.45,144.08,26.44,232.50
AOML_Explorer,Ex0733N,228.069,16082007,1:39:31,33.247,-65.255,414.01,-9.00,1018.14,1015.70,27.37,27.67,36.303,1.572,100.809,32.412,1018.136,316.600,18.700,352.000,6.176,404.99,2,-9.00,9,-9.00,0.03,3.68,151.00,26.39,232.53
AOML_Explorer,Ex0733N,228.071,16082007,1:42:04,33.257,-65.266,413.62,-9.00,1018.12,1015.70,27.44,27.71,36.243,1.536,100.423,32.425,1018.120,316.100,18.700,355.000,6.176,404.03,2,-9.00,9,-9.00,0.03,3.60,145.86,26.43,232.68
AOML_Explorer,Ex0733N,228.073,16082007,1:44:37,33.266,-65.277,413.56,-9.00,1018.13,1015.70,27.43,27.64,36.182,1.540,100.624,32.438,1018.131,316.900,18.700,355.000,8.750,403.07,2,-9.00,9,-9.00,0.03,1.32,179.88,26.64,232.70
AOML_Explorer,Ex0733N,228.074,16082007,1:47:10,33.276,-65.288,413.11,-9.00,1018.19,1015.80,27.42,27.75,36.144,1.549,100.544,32.451,1018.192,316.500,18.700,354.000,9.265,404.68,2,-9.00,9,-9.00,0.03,1.23,201.57,26.78,232.54
AOML_Explorer,Ex0733N,228.076,16082007,1:49:43,33.286,-65.299,411.56,-9.00,1018.20,1015.80,27.42,27.72,36.063,1.543,100.137,32.462,1018.198,316.500,18.700,354.000,8.750,402.57,2,-9.00,9,-9.00,0.04,1.42,182.42,26.79,232.65
AOML_Explorer,Ex0733N,228.078,16082007,1:52:16,33.295,-65.310,410.52,-9.00,1018.15,1015.80,27.46,27.70,36.085,1.547,100.016,32.473,1018.146,315.700,18.700,355.000,8.235,400.65,2,-9.00,9,-9.00,0.03,1.68,164.01,26.82,232.46
AOML_Explorer,Ex0733N,228.080,16082007,1:54:49,33.305,-65.321,409.27,-9.00,1018.11,1015.70,27.45,27.64,36.152,1.558,100.060,32.481,1018.109,315.700,18.800,1.000,8.750,398.58,2,-9.00,9,-9.00,0.03,0.98,132.00,26.81,232.48
AOML_Explorer,Ex0733N,228.082,16082007,1:57:22,33.314,-65.333,408.27,-9.00,1018.11,1015.70,27.45,27.59,36.214,1.524,100.282,32.492,1018.106,316.200,18.800,354.000,7.721,396.85,2,-9.00,9,-9.00,0.03,2.22,158.27,26.77,232.29
AOML_Explorer,Ex0733N,228.083,16082007,1:59:55,33.324,-65.344,407.15,-9.00,1018.09,1015.70,27.34,27.62,36.236,1.542,100.198,32.502,1018.095,316.700,18.800,354.000,7.721,397.97,2,-9.00,9,-9.00,0.03,2.26,159.45,26.79,232.04
AOML_Explorer,Ex0733N,228.102,16082007,2:26:46,33.426,-65.462,400.90,-9.00,1018.08,1015.70,27.41,27.70,36.332,1.536,100.222,32.621,1018.083,315.700,18.900,4.000,8.235,391.98,2,-9.00,9,-9.00,0.03,1.78,111.25,26.76,232.78
AOML_Explorer,Ex0733N,228.104,16082007,2:29:19,33.435,-65.473,402.35,-9.00,1018.02,1015.70,27.40,27.70,36.368,1.516,100.249,32.623,1018.024,316.000,19.000,7.000,8.750,393.48,2,-9.00,9,-9.00,0.03,1.68,90.08,26.76,232.57
AOML_Explorer,Ex0733N,228.105,16082007,2:31:52,33.445,-65.484,403.28,-9.00,1017.94,1015.60,27.43,27.74,36.392,1.558,100.274,32.624,1017.940,316.100,18.900,7.000,8.235,394.57,2,-9.00,9,-9.00,0.03,2.05,101.39,26.8,232.82
AOML_Explorer,Ex0733N,228.107,16082007,2:34:25,33.455,-65.496,404.02,-9.00,1017.93,1015.60,27.46,27.68,36.385,1.579,100.195,32.627,1017.929,315.200,19.100,6.000,9.265,393.77,2,-9.00,9,-9.00,0.03,1.43,75.98,26.74,232.83
AOML_Explorer,Ex0733N,228.109,16082007,2:36:58,33.464,-65.507,404.49,-9.00,1017.92,1015.60,27.44,27.59,36.362,1.549,100.021,32.629,1017.924,315.400,19.200,10.000,8.750,393.10,2,-9.00,9,-9.00,0.03,2.23,83.34,26.68,232.59
AOML_Explorer,Ex0733N,228.111,16082007,2:39:31,33.474,-65.518,403.67,-9.00,1017.94,1015.60,27.38,27.64,36.348,1.544,100.179,32.631,1017.940,316.300,19.100,8.000,8.235,394.19,2,-9.00,9,-9.00,0.03,2.21,100.67,26.66,232.55
AOML_Explorer,Ex0733N,228.113,16082007,2:42:04,33.484,-65.530,401.24,-9.00,1017.97,1015.60,27.35,27.74,36.331,1.584,99.993,32.630,1017.974,316.000,19.000,6.000,8.235,393.86,2,-9.00,9,-9.00,0.03,2.00,104.80,26.65,232.73
AOML_Explorer,Ex0733N,228.114,16082007,2:44:37,33.494,-65.541,399.68,-9.00,1017.92,1015.60,27.41,27.81,36.322,1.566,100.051,32.628,1017.918,316.800,19.000,6.000,8.750,392.38,2,-9.00,9,-9.00,0.03,1.57,94.11,26.65,232.74
AOML_Explorer,Ex0733N,228.116,16082007,2:47:10,33.504,-65.552,399.01,-9.00,1017.97,1015.70,27.47,27.79,36.303,1.594,99.930,32.631,1017.973,316.200,19.100,6.000,8.750,390.47,2,-9.00,9,-9.00,0.03,1.61,92.48,26.65,232.52
AOML_Explorer,Ex0733N,228.118,16082007,2:49:43,33.514,-65.563,398.79,-9.00,1018.06,1015.70,27.49,27.80,36.336,1.554,100.259,32.633,1018.056,316.400,19.000,10.000,8.235,390.16,2,-9.00,9,-9.00,0.03,2.37,94.63,26.69,232.69
AOML_Explorer,Ex0733N,228.120,16082007,2:52:16,33.523,-65.575,398.67,-9.00,1018.08,1015.70,27.51,27.85,36.371,1.570,100.259,32.635,1018.079,316.900,19.000,4.000,8.750,390.53,2,-9.00,9,-9.00,0.03,1.38,102.77,26.73,232.60
AOML_Explorer,Ex0733N,228.121,16082007,2:54:49,33.533,-65.586,399.08,-9.00,1018.12,1015.80,27.54,27.81,36.390,1.607,99.862,32.635,1018.123,316.600,19.000,7.000,7.721,389.82,2,-9.00,9,-9.00,0.03,2.43,110.52,26.72,232.72
AOML_Explorer,Ex0733N,228.123,16082007,2:57:22,33.543,-65.597,400.09,-9.00,1018.12,1015.80,27.56,27.72,36.414,1.561,100.284,32.631,1018.125,316.400,19.000,5.000,8.750,388.93,2,-9.00,9,-9.00,0.03,1.47,96.91,26.72,232.63
AOML_Explorer,Ex0733N,228.125,16082007,2:59:55,33.553,-65.608,400.98,-9.00,1018.14,1015.90,27.50,27.74,36.434,1.571,100.121,32.630,1018.138,316.900,19.000,8.000,8.235,391.27,2,-9.00,9,-9.00,0.03,2.12,100.26,26.75,232.93
AOML_Explorer,Ex0733N,228.144,16082007,3:26:46,33.656,-65.726,407.04,-9.00,1018.01,1015.60,27.33,27.59,36.373,1.566,100.420,32.680,1018.010,315.800,19.000,359.000,6.691,397.50,2,-9.00,9,-9.00,0.03,3.11,134.74,26.64,232.65
AOML_Explorer,Ex0733N,228.145,16082007,3:29:19,33.666,-65.738,407.72,-9.00,1017.98,1015.60,27.30,27.63,36.393,1.574,100.281,32.679,1017.984,316.300,19.000,2.000,6.176,399.38,2,-9.00,9,-9.00,0.03,3.71,130.18,26.64,232.95
AOML_Explorer,Ex0733N,228.147,16082007,3:31:52,33.676,-65.749,407.90,-9.00,1017.98,1015.60,27.34,27.59,36.388,1.586,100.201,32.676,1017.975,316.500,19.200,352.000,6.691,398.31,2,-9.00,9,-9.00,0.03,3.35,149.55,26.64,232.93
AOML_Explorer,Ex0733N,228.149,16082007,3:34:25,33.686,-65.760,407.70,-9.00,1017.94,1015.50,27.34,27.62,36.361,1.588,100.398,32.672,1017.942,316.300,19.300,356.000,6.691,398.48,2,-9.00,9,-9.00,0.03,3.31,140.97,26.59,232.86
AOML_Explorer,Ex0733N,228.151,16082007,3:36:58,33.696,-65.772,407.00,-9.00,1017.91,1015.50,27.32,27.72,36.367,1.592,100.255,32.667,1017.914,316.000,19.400,12.000,7.206,399.75,2,-9.00,9,-9.00,0.03,3.50,105.72,26.58,233.05
AOML_Explorer,Ex0733N,228.152,16082007,3:39:31,33.706,-65.783,405.63,-9.00,1017.86,1015.50,27.37,27.63,36.399,1.562,100.150,32.664,1017.856,316.500,19.600,2.000,7.206,396.13,2,-9.00,9,-9.00,0.03,2.98,127.27,26.63,232.66
AOML_Explorer,Ex0733N,228.154,16082007,3:42:04,33.716,-65.795,404.36,-9.00,1017.94,1015.40,27.45,27.52,36.316,1.578,100.142,32.661,1017.939,315.900,19.700,355.000,7.206,391.85,2,-9.00,9,-9.00,0.03,3.04,144.28,26.63,232.33
AOML_Explorer,Ex0733N,228.156,16082007,3:44:37,33.717,-65.797,403.00,-9.00,1017.93,1015.50,27.31,27.60,36.314,1.587,99.942,32.658,1017.933,0.000,0.000,0.000,6.176,393.96,2,-9.00,9,-9.00,0.03,4.02,134.72,26.57,232.42
AOML_Explorer,Ex0733N,228.158,16082007,3:47:10,33.717,-65.797,399.67,-9.00,1017.87,1015.50,27.31,27.61,36.291,1.602,99.971,32.652,1017.873,0.000,0.000,12.000,5.662,390.93,2,-9.00,9,-9.00,0.03,4.85,121.23,26.68,232.51
AOML_Explorer,Ex0733N,228.160,16082007,3:49:43,33.717,-65.797,397.57,-9.00,1017.84,1015.40,27.33,27.62,36.290,1.591,99.809,32.649,1017.844,0.000,0.000,7.000,5.662,388.76,2,-9.00,9,-9.00,0.03,4.65,127.30,26.59,232.65
AOML_Explorer,Ex0733N,228.161,16082007,3:52:16,33.717,-65.797,396.25,-9.00,1017.86,1015.40,27.34,27.72,36.265,1.558,99.920,32.646,1017.857,0.000,0.000,5.000,5.147,388.78,2,-9.00,9,-9.00,0.03,5.07,131.00,26.56,232.55
AOML_Explorer,Ex0733N,228.163,16082007,3:54:49,33.717,-65.797,395.22,-9.00,1017.80,1015.40,27.36,27.82,36.283,1.574,100.107,32.642,1017.796,0.000,0.000,357.000,5.662,388.88,2,-9.00,9,-9.00,0.03,4.52,139.85,26.61,232.63
AOML_Explorer,Ex0733N,228.165,16082007,3:57:22,33.717,-65.797,394.96,-9.00,1017.82,1015.40,27.46,27.84,36.315,1.586,100.139,32.641,1017.823,0.000,0.000,359.000,4.632,387.47,2,-9.00,9,-9.00,0.03,5.53,137.55,26.58,232.53
AOML_Explorer,Ex0733N,228.167,16082007,3:59:55,33.717,-65.797,395.49,-9.00,1017.86,1015.40,27.53,27.74,36.332,1.575,100.359,32.641,1017.865,0.000,0.000,4.000,4.632,385.26,2,-9.00,9,-9.00,0.03,5.55,133.12,26.53,232.22
AOML_Explorer,Ex0733N,228.189,16082007,4:31:52,33.717,-65.797,394.07,-9.00,1017.89,1015.50,27.47,27.78,36.364,1.541,100.186,32.661,1017.888,0.000,0.000,11.000,5.662,385.53,2,-9.00,9,-9.00,0.03,4.55,125.70,26.6,232.06
AOML_Explorer,Ex0733N,228.191,16082007,4:34:25,33.717,-65.797,394.71,-9.00,1017.77,1015.40,27.46,27.73,36.356,1.565,100.073,32.650,1017.766,0.000,0.000,10.000,6.176,385.38,2,-9.00,9,-9.00,0.03,4.04,124.05,26.62,232.07
AOML_Explorer,Ex0733N,228.192,16082007,4:36:58,33.717,-65.797,395.21,-9.00,1017.77,1015.40,27.46,27.71,36.363,1.562,100.290,32.644,1017.766,0.000,0.000,17.000,6.691,385.62,2,-9.00,9,-9.00,0.03,4.03,110.71,26.58,232.10
AOML_Explorer,Ex0733N,228.194,16082007,4:39:31,33.717,-65.797,395.13,-9.00,1017.93,1015.40,27.45,27.71,36.342,1.593,100.302,32.639,1017.926,0.000,0.000,10.000,6.691,385.76,2,-9.00,9,-9.00,0.03,3.52,122.28,26.62,232.21
AOML_Explorer,Ex0733N,228.196,16082007,4:42:04,33.717,-65.797,395.12,-9.00,1017.87,1015.50,27.42,27.69,36.358,1.588,100.314,32.634,1017.869,0.000,0.000,16.000,7.206,385.99,2,-9.00,9,-9.00,0.03,3.50,107.30,26.62,232.26
AOML_Explorer,Ex0733N,228.198,16082007,4:44:37,33.717,-65.797,394.96,-9.00,1017.76,1015.50,27.42,27.72,36.365,1.571,100.132,32.631,1017.757,0.000,0.000,9.000,6.691,386.24,2,-9.00,9,-9.00,0.03,3.40,124.09,26.59,232.48
AOML_Explorer,Ex0733N,228.199,16082007,4:47:10,33.717,-65.797,394.85,-9.00,1017.75,1015.40,27.42,27.70,36.361,1.601,100.231,32.625,1017.749,0.000,0.000,19.000,6.691,385.76,2,-9.00,9,-9.00,0.03,4.13,108.65,26.62,232.83
AOML_Explorer,Ex0733N,228.201,16082007,4:49:43,33.717,-65.797,394.82,-9.00,1017.80,1015.40,27.42,27.74,36.363,1.606,100.366,32.619,1017.803,0.000,0.000,7.000,7.206,386.34,2,-9.00,9,-9.00,0.03,2.84,124.82,26.6,232.77
AOML_Explorer,Ex0733N,228.203,16082007,4:52:16,33.717,-65.797,394.37,-9.00,1017.80,1015.60,27.44,27.63,36.379,1.573,99.976,32.614,1017.803,0.000,0.000,19.000,9.779,383.95,2,-9.00,9,-9.00,0.03,2.99,60.63,26.58,232.54
AOML_Explorer,Ex0733N,228.205,16082007,4:54:49,33.717,-65.797,393.88,-9.00,1017.65,1015.70,27.44,27.58,36.392,1.594,100.087,32.612,1017.654,0.000,0.000,39.000,10.294,382.60,2,-9.00,9,-9.00,0.03,6.50,62.34,26.53,232.54
AOML_Explorer,Ex0733N,228.207,16082007,4:57:22,33.717,-65.797,393.32,-9.00,1017.51,1015.60,27.36,27.58,36.382,1.582,99.811,32.608,1017.506,0.000,0.000,39.000,9.265,383.26,2,-9.00,9,-9.00,0.03,6.17,70.99,26.29,232.33
AOML_Explorer,Ex0733N,228.208,16082007,4:59:55,33.717,-65.797,392.68,-9.00,1017.40,1015.40,27.32,27.50,36.375,1.589,100.110,32.606,1017.397,0.000,0.000,53.000,11.838,382.17,2,-9.00,9,-9.00,0.03,9.68,62.45,25.89,232.07
AOML_Explorer,Ex0733N,228.223,16082007,5:21:40,34.113,-66.227,390.81,-9.00,1017.42,1015.50,27.26,27.45,36.370,1.548,99.421,32.633,1017.418,318.300,18.800,34.000,9.779,380.47,2,-9.00,9,-9.00,0.03,5.34,63.33,26.41,231.91
AOML_Explorer,Ex0733N,228.225,16082007,5:24:13,34.124,-66.238,391.46,-9.00,1017.40,1015.50,27.23,27.42,36.362,1.560,99.787,32.631,1017.400,316.100,18.400,38.000,10.294,381.19,2,-9.00,9,-9.00,0.03,6.20,60.50,26.38,231.72
AOML_Explorer,Ex0733N,228.227,16082007,5:26:46,34.133,-66.249,391.99,-9.00,1017.44,1015.60,27.17,27.43,36.374,1.553,99.525,32.630,1017.440,315.900,16.000,36.000,10.294,382.79,2,-9.00,9,-9.00,0.03,5.83,59.04,26.38,231.73
AOML_Explorer,Ex0733N,228.229,16082007,5:29:19,34.143,-66.259,392.59,-9.00,1017.45,1015.50,27.18,27.37,36.342,1.557,99.371,32.628,1017.445,318.900,18.600,36.000,10.294,382.22,2,-9.00,9,-9.00,0.03,5.75,59.17,26.32,231.95
AOML_Explorer,Ex0733N,228.230,16082007,5:31:52,34.153,-66.269,393.51,-9.00,1017.33,1015.50,27.16,27.42,36.341,1.538,99.718,32.621,1017.331,300.300,16.300,33.000,10.809,384.11,2,-9.00,9,-9.00,0.03,5.45,51.37,26.27,232.01
AOML_Explorer,Ex0733N,228.232,16082007,5:34:25,34.163,-66.280,393.76,-9.00,1017.26,1015.50,27.13,27.55,36.319,1.544,99.400,32.617,1017.258,306.100,10.400,41.000,11.323,387.04,2,-9.00,9,-9.00,0.03,7.06,54.41,26.22,232.02
AOML_Explorer,Ex0733N,228.234,16082007,5:36:58,34.173,-66.290,393.76,-9.00,1017.23,1015.40,27.17,27.61,36.348,1.585,99.399,32.610,1017.225,303.900,11.500,41.000,10.809,387.27,2,-9.00,9,-9.00,0.03,6.79,57.91,26.25,232.44
AOML_Explorer,Ex0733N,228.236,16082007,5:39:31,34.183,-66.302,393.96,-9.00,1017.22,1015.30,27.27,27.72,36.315,1.527,99.747,32.604,1017.222,311.600,10.900,42.000,10.294,387.39,2,-9.00,9,-9.00,0.03,6.73,62.88,26.28,232.52
AOML_Explorer,Ex0733N,228.238,16082007,5:42:04,34.193,-66.312,394.51,-9.00,1017.20,1015.30,27.33,27.70,36.338,1.517,99.780,32.598,1017.200,306.400,17.100,42.000,10.294,386.71,2,-9.00,9,-9.00,0.03,6.80,62.65,26.3,232.74
AOML_Explorer,Ex0733N,228.239,16082007,5:44:37,34.203,-66.323,394.60,-9.00,1017.26,1015.30,27.45,27.71,36.270,1.499,99.701,32.589,1017.261,305.300,22.700,40.000,9.779,385.08,2,-9.00,9,-9.00,0.03,6.25,65.65,26.31,232.34
AOML_Explorer,Ex0733N,228.241,16082007,5:47:10,34.211,-66.331,394.48,-9.00,1017.25,1015.30,27.39,27.68,36.259,1.499,99.168,32.583,1017.246,318.600,18.700,45.000,8.750,385.37,2,-9.00,9,-9.00,0.03,6.65,76.66,26.36,231.81
AOML_Explorer,Ex0733N,228.243,16082007,5:49:43,34.211,-66.331,393.10,-9.00,1017.43,1015.40,27.39,27.70,36.277,1.492,99.451,32.579,1017.426,318.600,18.700,41.000,9.779,384.36,2,-9.00,9,-9.00,0.03,6.34,66.25,26.37,231.86
AOML_Explorer,Ex0733N,228.245,16082007,5:52:16,34.211,-66.331,391.89,-9.00,1017.36,1015.40,27.39,27.78,36.251,1.493,99.468,32.576,1017.356,318.600,18.700,45.000,9.779,384.38,2,-9.00,9,-9.00,0.03,6.96,69.32,26.29,231.96
AOML_Explorer,Ex0733N,228.246,16082007,5:54:49,34.211,-66.331,391.65,-9.00,1017.37,1015.40,27.40,27.69,36.317,1.543,99.359,32.573,1017.368,318.600,18.700,40.000,9.779,382.62,2,-9.00,9,-9.00,0.03,6.21,66.24,26.24,232.06
AOML_Explorer,Ex0733N,228.248,16082007,5:57:22,34.211,-66.331,391.86,-9.00,1017.40,1015.50,27.47,27.52,36.273,1.539,99.490,32.568,1017.400,318.600,18.700,40.000,9.779,379.21,2,-9.00,9,-9.00,0.04,6.29,66.16,26.26,232.30
AOML_Explorer,Ex0733N,228.250,16082007,5:59:55,34.211,-66.331,393.04,-9.00,1017.47,1015.50,27.38,27.38,36.312,1.512,99.899,32.567,1017.473,318.600,18.700,42.000,9.779,379.65,2,-9.00,9,-9.00,0.03,6.64,67.45,26.33,232.34
AOML_Explorer,Ex0733N,228.269,16082007,6:26:46,34.211,-66.331,401.10,-9.00,1017.53,1015.60,27.07,27.22,36.317,1.526,100.387,32.604,1017.534,318.600,18.700,29.000,9.265,389.94,2,-9.00,9,-9.00,0.03,4.42,63.19,26.29,232.87
AOML_Explorer,Ex0733N,228.270,16082007,6:29:19,34.211,-66.331,401.58,-9.00,1017.50,1015.70,27.02,27.28,36.303,1.490,100.399,32.604,1017.500,318.600,18.700,31.000,9.779,392.36,2,-9.00,9,-9.00,0.03,4.81,57.83,26.27,232.60
AOML_Explorer,Ex0733N,228.272,16082007,6:31:52,34.381,-66.526,401.61,-9.00,1017.48,1015.70,26.98,27.28,36.334,1.519,100.406,32.597,1017.480,315.000,18.700,30.000,9.779,393.10,2,-9.00,9,-9.00,0.03,4.74,57.21,26.29,232.71